sat.trackr.live / text

‹ back to catalog

HULIANWANG DIGUI-88

NORAD 65996 · 2025-231B

PAYLOAD ACTIVE UNKNOWN

§ Identity

Operator
Country
PRC
Launch date
2025-10-16
Launch site
WSC
Launch vehicle
Mass (kg)
RCS (m²)

External: N2YO · Heavens-Above · Gunter

§ Orbital elements

Epoch: 2026-09-20T04:48:30.639168Z

Period
108.33 min
Inclination
49.9980°
Eccentricity
0.0000500
Mean motion
13.29326623 rev/d
Perigee alt
1,148.9 km
Apogee alt
1,149.7 km
Semi-major
7,527.4 km
B*
4.0897e-5
RAAN
195.0852°
Arg perigee
58.7080°
Mean anomaly
301.3841°
Rev number
4,552

§ Raw data

HULIANWANG DIGUI-881 65996U 25231B   26263.20035462 -.00000105  00000+0  40897-4 0  99972 65996  49.9980 195.0852 0000500  58.7080 301.3841 13.29326623 45522

JSON: /api/v1/satellites/65996 · /tle

For live sub-satellite position, see the globe view (requires WebGL).

§ Visibility from observer

Set your observer location to see the next 7 days of passes ≥ 10°. The values pass through the URL so the page stays shareable.

No JS? Fill the form by hand. The geolocation button needs JavaScript.